Simultaneous Nadir Overpasses (SNOs) Predictions

Prediction of SNOs between AQUA and METOP-A Satellite Orbit:

Table of predicted SNOs for the next 14.0 days since TLE Epoch: 11/2/2018
Index Date (AQUA) Time (AQUA) Lat,Lon (AQUA) SZA (AQUA ) Date (METOP-A) Time (METOP-A) Lat,Lon (METOP-A) SZA (METOP-A ) Distance(km) Time Diff (sec)
1 11/03/2018 05:43:56 -74.50, -93.26 90.52 11/03/2018 05:42:43 -74.45, -93.89 90.56 19.55 73
2 11/03/2018 06:33:26 74.66, 73.98 89.66 11/03/2018 06:33:19 74.65, 73.97 89.65 1.49 7
3 11/03/2018 07:22:53 -74.70,-118.47 90.29 11/03/2018 07:23:59 -74.71,-118.53 90.28 2.18 66
4 11/06/2018 01:18:11 -74.54, -26.93 89.61 11/06/2018 01:16:58 -74.49, -27.38 89.65 14.76 73
5 11/06/2018 02:07:40 74.66, 140.42 90.53 11/06/2018 02:07:34 74.68, 140.47 90.55 2.74 6
6 11/06/2018 02:57:08 -74.75, -52.15 89.38 11/06/2018 02:58:14 -74.75, -52.02 89.38 3.79 66
7 11/08/2018 20:52:26 -74.60, 39.39 88.73 11/08/2018 20:51:13 -74.53, 39.13 88.79 10.99 73
8 11/08/2018 21:41:54 74.67,-153.15 91.36 11/08/2018 21:41:50 74.67,-153.17 91.36 0.52 4
9 11/08/2018 22:31:22 -74.75, 14.29 88.55 11/08/2018 22:32:30 -74.74, 14.36 88.56 2.07 68
10 11/11/2018 16:26:39 -74.60, 105.81 87.93 11/11/2018 16:25:26 -74.61, 105.76 87.91 1.80 73
11 11/11/2018 17:16:07 74.68, -86.73 92.16 11/11/2018 17:16:04 74.70, -86.67 92.19 3.01 3
12 11/11/2018 18:05:35 -74.75, 80.72 87.75 11/11/2018 18:06:45 -74.73, 80.73 87.78 2.82 70
13 11/14/2018 12:00:53 -74.61, 172.23 87.16 11/14/2018 11:59:42 -74.60, 172.13 87.17 3.49 71
14 11/14/2018 12:50:21 74.69, -20.32 92.93 11/14/2018 12:50:20 74.68, -20.31 92.92 1.27 1




NCC Satellite Simultaneous Nadir Overpasses (SNOs) Prediction Service
